Wind_Speed
33 31 22 20 23 25 25 23 22 25 25 25 23 25 23 23 27 25 20 23 19 18 20 20 20 19 14 17 14 16 23 20 19 19 19 18 20 19 22 15 2 1 5 7
39 37 35 32 29 24 29 27 30 31 28 25 27 27 24 24 24 23 23 25 23 22 21 26 18 15 18 19 19 21 15 16 16 18 18 20 25 24 17 17 13 10 7 6
42 43 43 40 38 39 32 31 29 35 36 32 29 25 25 25 25 26 26 26 28 28 30 26 23 20 19 23 26 22 23 21 21 20 20 19 27 27 20 19 13 15 15 15
49 47 45 44 44 41 38 38 35 34 31 31 34 34 33 27 31 34 34 30 32 33 35 31 25 23 22 28 33 30 29 27 25 25 26 29 27 35 26 20 17 20 21 21
50 52 51 50 48 48 44 40 41 41 44 41 34 35 33 33 33 37 35 32 36 38 37 35 32 29 32 32 36 39 35 33 35 37 38 34 36 46 41 33 28 28 25 27
54 55 56 54 53 52 50 49 47 49 42 44 39 46 39 40 36 40 43 42 39 40 40 39 42 41 40 38 37 38 39 37 37 41 42 40 50 44 40 34 32 33 37 39
59 59 61 62 60 58 57 55 54 53 55 57 51 44 43 44 48 40 44 51 54 48 39 40 43 48 47 43 42 44 44 44 47 49 51 54 43 39 32 43 40 42 42 46
56 59 62 64 65 65 64 61 61 60 61 59 54 52 55 52 50 54 55 53 48 48 49 51 53 41 40 41 44 47 51 60 58 58 52 42 43 45 40 39 47 46 50 52
57 59 60 64 67 66 67 66 68 67 66 66 65 63 60 61 62 61 60 61 62 62 62 60 60 60 64 65 61 62 61 63 62 59 49 47 45 44 51 52 52 54 54 56
59 60 61 63 64 65 66 66 67 70 70 70 70 70 69 65 66 71 72 72 73 73 72 71 64 60 65 64 59 48 45 42 39 33 41 43 47 49 55 56 60 61 60 63
46 50 56 60 62 64 62 63 65 68 68 70 71 70 73 72 70 73 76 78 79 81 81 75 72 69 65 55 39 37 39 36 36 41 42 49 55 52 53 55 58 62 62 63
47 46 50 49 52 52 54 55 55 59 63 66 67 62 70 73 76 76 77 77 78 78 78 75 71 66 45 38 32 33 37 43 50 73 68 51 54 49 54 57 62 66 69 69
52 52 52 57 57 56 58 59 59 60 60 59 61 58 63 67 67 69 70 69 64 61 61 55 54 50 45 41 40 48 53 56 61 69 59 65 77 69 66 71 72 73 77 78
55 55 54 56 59 62 63 65 67 69 68 68 67 66 66 68 71 72 70 70 70 67 65 62 60 57 57 54 59 63 69 68 71 80 81 82 84 90 86 85 82 84 86 86
59 58 57 58 61 64 66 67 69 73 74 75 74 74 74 76 78 79 79 78 77 77 77 73 67 65 66 67 71 72 75 75 80 84 91 88 100 86 88 91 91 96 93 93
64 59 59 61 63 64 65 66 70 73 74 75 76 79 80 80 80 82 84 85 85 83 82 81 80 80 76 66 78 82 79 79 85 92 99 95 96 105 104 102 103 100 100 100
63 63 63 63 63 62 64 68 69 71 75 78 80 79 81 84 85 82 83 84 84 82 85 84 85 85 84 82 80 94 95 91 89 98 101 106 110 107 111 116 117 118 118 116
62 62 61 61 61 60 58 60 66 70 74 79 82 84 86 89 91 91 91 90 87 86 85 86 86 85 87 87 85 85 102 103 100 99 102 107 112 114 115 118 120 122 125 127
60 57 55 54 53 54 58 61 65 69 71 71 71 73 76 79 82 86 87 91 89 87 86 79 82 84 84 86 87 89 90 95 108 113 116 121 122 123 124 127 132 136 138 140
40 42 44 47 50 54 58 58 56 57 58 60 62 63 62 58 56 57 60 67 75 72 70 82 89 89 87 86 85 84 88 90 93 96 102 110 115 120 124 124 126 128 132 135
34 36 41 45 48 49 48 48 50 49 49 47 42 36 30 31 31 24 33 37 50 52 56 56 63 70 75 77 79 79 86 90 96 101 104 106 109 111 114 119 120 125 128 128
34 38 39 39 38 38 40 44 46 46 43 41 34 31 29 25 23 23 20 30 39 39 40 42 43 49 53 52 56 62 64 69 74 75 78 79 80 82 84 89 92 96 102 100
33 34 30 30 31 33 37 40 43 42 42 39 35 33 30 30 27 24 26 29 32 36 39 44 48 40 41 42 46 50 53 55 58 62 65 66 70 72 74 76 77 81 82 77
28 26 26 24 27 28 34 39 41 42 41 38 36 35 32 31 28 27 27 31 32 32 32 34 38 42 42 41 44 47 51 56 62 65 64 61 59 60 59 58 53 52 57 55
25 25 25 29 29 32 35 36 35 34 33 33 31 31 31 29 29 31 34 36 37 36 35 33 32 34 36 42 46 51 54 57 53 49 47 45 46 44 41 41 38 42 39 38
24 26 28 28 27 30 29 30 29 26 24 23 24 25 25 25 25 24 25 26 27 30 31 34 36 39 42 43 46 52 47 41 37 33 31 28 29 31 34 35 35 38 35 32
Wind_Direction
233 231 232 231 228 231 234 237 245 245 246 250 252 264 269 277 284 287 289 302 306 312 309 310 330 335 342 341 334 346 348 329 341 357 24 26 12 6 1 6 297 352 5 353
235 240 238 236 238 241 231 237 249 250 245 255 251 264 265 271 274 277 285 291 285 282 289 294 312 317 324 325 332 320 337 335 323 333 347 3 355 346 350 343 329 300 295 278
238 238 242 246 247 243 242 240 249 245 248 254 249 256 264 273 264 269 275 281 285 288 281 283 302 308 309 311 318 315 306 301 317 325 326 333 336 331 318 315 305 281 268 252
241 239 240 242 245 249 251 252 243 244 248 251 252 253 254 262 260 257 266 275 275 281 277 272 291 290 295 302 306 304 301 301 299 299 308 312 306 319 308 295 282 275 278 273
243 245 246 246 245 244 248 241 245 243 246 252 255 262 266 257 259 258 264 265 264 274 277 271 282 280 284 285 295 295 293 293 292 295 302 311 305 306 298 285 277 264 266 271
243 246 249 247 250 249 249 249 244 243 240 241 255 262 264 265 263 261 263 259 263 274 275 271 275 279 282 285 285 289 287 286 293 296 298 300 310 304 293 281 267 260 265 268
245 247 249 249 249 248 248 250 245 243 246 250 242 250 256 255 252 250 253 255 256 258 262 271 270 273 277 277 279 281 284 288 292 293 294 298 299 293 287 282 277 280 271 264
247 246 248 252 251 253 251 250 250 249 247 250 248 247 253 248 253 253 250 248 245 247 248 255 260 260 259 265 272 277 282 296 296 298 303 293 286 287 278 276 269 271 270 265
254 252 248 251 253 253 254 253 252 251 251 250 251 248 253 251 253 258 256 254 253 254 254 261 264 263 265 269 278 292 298 300 297 293 290 290 286 283 273 271 268 268 266 263
259 260 258 256 256 256 256 255 255 255 253 254 254 255 256 254 254 255 259 262 264 265 266 267 268 266 273 282 289 292 301 297 291 282 277 277 273 269 272 267 270 269 266 267
264 265 266 265 264 264 265 264 263 262 260 256 255 255 255 255 255 256 258 260 261 263 266 267 269 271 275 281 276 274 278 279 279 270 273 271 260 257 252 254 256 261 266 266
262 262 267 266 266 266 266 267 267 268 266 264 261 261 260 260 259 258 258 258 260 262 264 267 272 273 265 246 253 272 247 245 233 254 248 235 235 242 246 252 263 264 265 265
263 265 268 273 273 271 271 271 268 268 270 268 266 263 264 264 263 262 261 262 263 261 262 261 256 251 233 232 233 250 240 237 241 242 239 238 238 240 248 254 260 261 261 263
263 264 265 268 271 274 274 273 273 272 271 270 270 267 266 267 267 267 266 265 263 263 260 255 247 245 243 227 231 233 239 236 238 235 239 242 246 251 253 256 259 260 260 261
263 262 264 268 271 272 271 271 273 275 275 274 273 271 269 267 267 266 265 265 266 266 266 264 259 251 249 246 228 232 235 238 237 243 245 246 243 244 251 259 258 259 260 262
266 265 266 268 270 271 271 272 271 269 270 272 274 274 272 269 267 266 266 265 263 262 262 263 262 261 257 245 236 239 242 250 248 244 244 248 254 255 254 255 255 258 260 261
264 264 265 268 273 273 272 273 273 271 271 272 273 274 274 273 271 266 266 267 265 264 262 262 261 261 262 261 253 239 240 245 253 252 249 249 254 259 258 260 262 261 260 260
262 264 267 271 273 276 276 274 274 274 273 274 275 275 272 270 269 269 268 266 264 265 265 264 263 262 261 260 258 251 244 246 250 251 251 253 256 258 259 260 260 260 259 259
261 265 268 272 273 273 274 279 281 283 283 281 279 277 273 269 266 265 265 265 264 263 261 261 262 263 263 262 262 261 259 253 250 253 256 256 257 257 260 262 263 262 262 263
255 261 266 270 275 280 282 286 288 287 290 287 288 286 282 275 270 265 258 272 267 261 262 262 258 259 261 261 263 265 264 263 264 263 262 261 261 261 264 266 267 267 267 268
263 268 274 277 280 283 288 289 289 293 291 291 297 299 294 288 283 285 271 230 250 261 271 265 264 266 268 268 268 268 266 266 266 267 268 269 268 268 268 269 272 271 270 270
273 275 276 277 282 285 286 290 294 296 296 295 301 308 311 312 305 289 275 261 264 275 277 273 274 276 279 273 273 269 268 268 270 271 271 272 272 273 273 274 275 276 276 277
273 273 278 280 284 286 292 297 299 296 296 297 298 300 305 308 298 299 296 290 287 284 278 274 277 281 275 276 277 279 280 283 285 285 284 283 281 281 280 281 284 285 287 287
276 278 279 283 289 297 306 307 303 299 295 291 292 294 294 294 295 292 289 287 288 290 289 287 288 288 289 288 287 286 288 288 289 288 285 284 284 284 285 287 292 300 304 302
283 283 279 279 285 294 305 310 303 298 293 288 288 289 288 291 291 289 288 287 287 288 288 286 282 285 287 288 289 291 296 297 292 289 287 285 286 287 290 293 301 309 315 321
294 292 283 283 289 296 306 315 314 315 318 307 293 292 295 291 288 288 290 292 292 290 290 290 290 291 290 292 295 297 299 300 300 294 295 297 300 302 301 302 300 303 315 330
Height
11003 11006 11008 11010 11011 11011 11012 11012 11013 11014 11015 11016 11017 11015 11016 11016 11015 11016 11016 11016 11013 11012 11012 11013 11011 11009 11010 11010 11010 11010 11011 11010 11010 11009 11008 11005 11003 11003 11002 11002 11001 10998 10997 10997
10998 10999 11002 11005 11007 11007 11009 11009 11009 11009 11010 11012 11012 11012 11012 11013 11012 11013 11012 11011 11012 11011 11010 11008 11007 11007 11006 11006 11007 11009 11009 11009 11007 11007 11006 11004 11004 11004 11002 11000 10999 10998 10997 10996
10991 10993 10994 10997 10999 11001 11003 11005 11006 11005 11005 11006 11007 11008 11008 11009 11009 11008 11007 11007 11006 11007 11006 11004 11003 11002 11003 11004 11005 11005 11006 11006 11007 11004 11004 11005 11002 11003 11000 10999 10997 10995 10994 10992
10982 10986 10986 10989 10991 10993 10997 10999 11000 11001 11001 11001 11001 11001 11003 11004 11004 11003 11003 11003 11003 11000 11001 11000 10999 10999 10999 11000 11001 11001 11000 11000 11002 11001 11001 11002 11002 11000 11000 10997 10994 10990 10989 10989
10972 10974 10976 10979 10983 10987 10988 10992 10991 10992 10995 10996 10996 10995 10996 10997 10997 10999 10998 10997 10996 10995 10994 10995 10995 10995 10994 10996 10997 10997 10996 10995 10995 10995 10995 10996 10998 10996 10992 10992 10990 10986 10984 10982
10964 10965 10964 10969 10971 10977 10979 10982 10984 10985 10986 10987 10992 10987 10992 10988 10988 10990 10991 10989 10988 10989 10989 10990 10989 10989 10989 10990 10990 10990 10990 10989 10989 10988 10987 10987 10986 10984 10984 10983 10981 10978 10975 10973
10954 10954 10952 10955 10959 10962 10966 10970 10974 10976 10976 10975 10986 10983 10983 10981 10979 10981 10976 10979 10980 10980 10981 10979 10980 10982 10982 10982 10984 10983 10984 10983 10982 10982 10981 10980 10978 10976 10974 10972 10972 10970 10965 10962
10940 10942 10940 10940 10943 10947 10951 10955 10959 10960 10963 10965 10972 10976 10970 10972 10968 10966 10967 10968 10967 10967 10970 10972 10974 10974 10973 10972 10974 10975 10977 10976 10974 10971 10969 10969 10966 10964 10961 10959 10959 10957 10955 10952
10927 10926 10932 10929 10929 10935 10937 10941 10941 10945 10949 10952 10954 10962 10961 10958 10955 10950 10949 10951 10952 10954 10956 10959 10960 10960 10960 10961 10965 10966 10966 10962 10958 10959 10954 10953 10949 10948 10947 10945 10943 10942 10941 10938
10911 10910 10913 10915 10916 10920 10921 10926 10928 10927 10936 10938 10941 10946 10946 10945 10943 10938 10935 10932 10934 10935 10937 10941 10945 10947 10949 10954 10958 10957 10958 10955 10949 10946 10944 10939 10936 10933 10930 10929 10927 10925 10925 10923
10898 10899 10895 10900 10901 10904 10909 10910 10910 10910 10916 10918 10922 10928 10925 10928 10927 10925 10922 10919 10918 10918 10920 10927 10929 10934 10941 10946 10945 10948 10948 10945 10934 10933 10930 10930 10919 10915 10912 10909 10908 10906 10906 10904
10886 10888 10883 10887 10886 10891 10892 10892 10892 10891 10892 10896 10902 10912 10903 10903 10904 10906 10904 10905 10901 10903 10903 10909 10915 10919 10926 10928 10934 10932 10932 10928 10929 10921 10920 10908 10898 10894 10892 10891 10891 10889 10888 10890
10875 10876 10877 10871 10873 10878 10877 10877 10877 10876 10876 10879 10880 10889 10883 10880 10883 10883 10884 10888 10884 10884 10887 10893 10897 10898 10902 10909 10912 10914 10912 10907 10906 10906 10899 10891 10880 10872 10872 10873 10872 10872 10870 10869
10860 10863 10866 10865 10862 10860 10861 10859 10857 10856 10858 10859 10863 10867 10867 10864 10861 10861 10865 10865 10866 10867 10869 10875 10877 10879 10883 10885 10884 10885 10889 10891 10888 10885 10878 10872 10866 10860 10858 10857 10853 10854 10851 10848
10845 10850 10851 10850 10849 10848 10846 10844 10843 10838 10836 10835 10838 10840 10843 10842 10840 10838 10839 10843 10845 10846 10847 10851 10856 10858 10862 10866 10864 10862 10861 10864 10865 10864 10861 10854 10848 10843 10842 10841 10837 10836 10834 10830
10828 10835 10836 10834 10834 10832 10832 10829 10825 10821 10817 10816 10814 10812 10814 10815 10816 10814 10814 10817 10820 10823 10825 10828 10830 10833 10840 10845 10846 10842 10841 10839 10839 10839 10837 10831 10830 10826 10822 10819 10817 10816 10814 10811
10814 10816 10817 10817 10816 10817 10817 10811 10807 10803 10799 10796 10793 10792 10790 10787 10785 10790 10790 10791 10794 10797 10799 10803 10807 10810 10812 10818 10822 10821 10817 10816 10815 10813 10814 10811 10806 10802 10798 10794 10792 10788 10782 10780
10797 10799 10801 10802 10800 10800 10797 10792 10787 10785 10782 10777 10772 10769 10764 10761 10758 10759 10763 10766 10770 10773 10776 10779 10780 10782 10782 10784 10788 10794 10795 10792 10792 10792 10788 10783 10779 10775 10770 10765 10763 10759 10755 10748
10783 10785 10786 10786 10784 10782 10778 10776 10771 10764 10758 10753 10747 10741 10734 10730 10730 10732 10739 10738 10743 10745 10748 10749 10751 10754 10756 10759 10760 10763 10766 10766 10764 10760 10757 10752 10747 10745 10743 10738 10733 10728 10723 10716
10770 10772 10773 10772 10768 10765 10761 10759 10753 10745 10738 10731 10725 10715 10707 10707 10711 10709 10714 10712 10712 10720 10721 10725 10723 10723 10728 10731 10734 10737 10736 10734 10734 10730 10725 10724 10721 10718 10715 10708 10701 10692 10684 10675
10761 10762 10761 10758 10755 10751 10748 10743 10738 10732 10725 10718 10709 10702 10695 10693 10694 10696 10697 10698 10698 10699 10701 10701 10703 10705 10707 10710 10710 10709 10708 10704 10701 10697 10695 10691 10688 10684 10679 10671 10663 10653 10643 10637
10752 10752 10750 10748 10746 10743 10737 10732 10726 10720 10713 10707 10700 10694 10691 10688 10687 10688 10690 10694 10695 10692 10691 10691 10691 10692 10691 10689 10686 10685 10683 10678 10675 10674 10669 10664 10660 10653 10646 10638 10629 10618 10608 10603
10744 10742 10742 10739 10738 10734 10728 10722 10715 10708 10702 10697 10691 10687 10684 10682 10682 10682 10682 10682 10683 10683 10682 10681 10681 10679 10677 10674 10672 10669 10664 10660 10656 10651 10645 10640 10634 10629 10622 10614 10606 10593 10582 10573
10736 10735 10733 10731 10728 10725 10718 10712 10705 10698 10692 10687 10683 10682 10681 10678 10676 10676 10675 10674 10673 10671 10669 10669 10667 10665 10661 10658 10656 10652 10648 10643 10638 10630 10623 10618 10612 10607 10601 10595 10588 10577 10565 10551
10728 10727 10726 10724 10722 10717 10712 10705 10697 10691 10685 10681 10679 10676 10674 10672 10670 10669 10668 10666 10664 10662 10660 10659 10657 10655 10652 10648 10643 10638 10633 10626 10617 10611 10606 10602 10597 10592 10586 10581 10575 10568 10557 10543
10721 10719 10717 10715 10714 10709 10706 10699 10690 10683 10678 10674 10672 10670 10668 10666 10665 10663 10661 10659 10657 10655 10652 10650 10647 10644 10640 10636 10632 10626 10619 10612 10604 10598 10593 10588 10584 10580 10575 10569 10565 10558 10550 10539